Home   Weather   Damascus   Past weeks

Flag for Syria Past Weather in Damascus, Syria — Yesterday and Last 2 Weeks

Now
36 °F

Sunny.


Feels Like: 33 °F
Forecast: 33 / 58 °F
Wind: 3 mph from North

Location: Damascus Int. Airport

Current Time: Dec 10, 2016 at 9:18:37 am

Latest Report: Dec 10, 2016 at 9:00 am


Visibility: 10 mi

Pressure: 30.21 "Hg (27.73 "Hg at 689m altitude)

Humidity: 81%

Dew Point: 30 °F

Location of DamascusLocation

Past Weather in Damascus — Graph

°F

Damascus Temperature Yesterday

Maximum temperature yesterday: 73 °F (at 8:00 am)
Minimum temperature yesterday: 27 °F (at 7:00 am)
Average temperature yesterday: 41 °F

High & Low Weather Summary for the Past Weeks

 TemperatureHumidityPressure
High73 °F (Dec 9, 8:00 am)100% (Nov 28, 3:00 am)30.36 "Hg (Nov 28, 3:00 am)
Low19 °F (Nov 27, 5:00 am)10% (Nov 27, 11:00 am)29.71 "Hg (Dec 1, 9:00 pm)
Average45 °F62%30.16 "Hg
* Reported Nov 25 11:00 am — Dec 10 8:00 am, Damascus, Weather by CustomWeather, © 2016

Note: Actual official high and low records may vary slightly from our data, if they occured in-between our weather recording intervals... More about our weather records

Advertising

Damascus Weather History for the Previous 24 Hours

Scroll right to see more
 ConditionsComfort  
Time TempWeatherWind HumidityBarometerVisibility
8:00 am
Sat, Dec 10
28 °FIce fog.3 mph86%30.21 "Hg1 mi
7:00 am25 °FIce fog.3 mph93%30.21 "Hg1 mi
6:00 am25 °FIce fog.3 mph86%30.21 "Hg2 mi
5:00 am25 °FIce fog.3 mph93%30.21 "Hg2 mi
4:00 am28 °FIce fog.2 mph86%30.21 "Hg2 mi
3:00 am28 °FIce fog.6 mph86%30.21 "Hg2 mi
2:00 am30 °FChilly.No wind86%30.24 "Hg4 mi
1:00 am30 °FClear.No wind86%30.24 "Hg10 mi
12:00 am30 °FClear.No wind86%30.24 "Hg10 mi
11:00 pm
Fri, Dec 9
32 °FClear.No wind80%30.27 "Hg10 mi
10:00 pm36 °FClear.No wind75%30.27 "Hg10 mi
9:00 pm34 °FClear.No wind75%30.27 "Hg10 mi
8:00 pm37 °FClear.3 mph75%30.27 "Hg10 mi
7:00 pm43 °FClear.2 mph61%30.27 "Hg10 mi
6:00 pm45 °FClear.5 mph57%30.27 "Hg10 mi
5:00 pm48 °FClear.No wind54%30.27 "Hg10 mi
4:00 pm50 °FSunny.No wind47%30.27 "Hg10 mi
3:00 pm52 °FSunny.No wind44%30.27 "Hg10 mi
2:00 pm50 °FSunny.No wind47%30.27 "Hg10 mi
12:00 pm48 °FSunny.No wind50%30.30 "Hg10 mi
11:00 am46 °FSunny.No wind53%30.33 "Hg10 mi
10:00 am41 °FSunny.No wind81%30.36 "Hg10 mi
9:00 am36 °FFog.No wind100%30.36 "Hg2 mi
Weather by CustomWeather, © 2016

See weather overviewHow to use our weather pages